Showing default

AETHER-5, 67376

Orbit data source: Space-Track

AETHER-5, 67376 is a payload satellite owned by Kepler Comms (CA) in SSO that was launched on Sun, 11 Jan 2026 UTC via an FALCON 9 launch vehicle from the Air Force Western Test Range (AFWTR). Payload-class satellites include a variety of spacecraft equipped with specific instruments for various scientific and technological missions. These include communications satellites like Starlink; space stations such as the ISS; scientific satellites like the Hubble; Earth observation satellites from companies like Planet Labs, Umbra, and HawkEye 360; GPS; miniature CubeSats for education and research; and military/defense satellites.

Loading next visibility...
Identifier
67376, 2026-004P
Orbit
SSO
Country
Flag of CACA
Related business
Manufacturer
Kepler Comms
Mission
Operational spacecraft
Bus & Motor
KEPLER GEN2B, Unknown motor
Mass
300 kg wet, 300 kg dry
Launch date (UTC)
2026-01-11 (3 months ago)
Launch vehicle
FALCON 9
Launch site
Air Force Western Test Range (AFWTR)
Object type
Payload
Rocket body
Debris
Shape & HBR
Unknown shape, 7.6 m
Radar Cross Section
RCS unknown

Expand to show TLE details & history
Last TLE update: 13 hours ago

TLE from 13 hours ago
0 AETHER-5
1 67376U 26004P   26095.00766017  .00003249  00000-0  36034-3 0  9997
2 67376  97.8038  94.8081 0005903  25.8246 334.3264 14.87939583 12410
Epoch: 2026-04-05T00:11Z
TLE epoch observation values (Epoch: 2026-04-05T00:11:01.838Z)
Latitude
-0.00005°
Longitude
-101.26881°
Altitude
603.694 km
Speed
7.56 km/s
True Right ascension
06h 19m 13s
True Declination
0° 00' 00"
Sunlit
Object was in daylight at epoch
Visualization orbit readout
Latitude
Unknown
Longitude
Unknown
Altitude
Unknown
Speed
Unknown
Apparent Right ascension
Unknown
Apparent Declination
Unknown
Sunlit
N/A
Visualization observer readout
Local Sidereal Time
19:27:55
Azimuth
Unknown
Elevation
Unknown
Doppler factor
Unknown
Orbital elements
Apogee altitude
605.52 km
Perigee altitude
597.28 km
Semi-major axis
6,979.537 km
Eccentricity
0.00059
Inclination
97.8038°
RAAN
94.8081°
Arg. of periapsis
25.8246°
True anomaly
334.29707°
Mean anomaly
334.3264°
Eccentric anomaly
334.31174°
Mean motion
3.72223 °/min
Orbital period
96.72 mins
BSTAR
0.00036034
Loading maneuver chart data...
Computing Atmospheric mass density...
Loading historical data...
Loading historical data...
Loading historical data...
Loading historical data...
Loading historical data...
Loading historical data...
Loading historical data...

Documentation

Showing up to 5 results
|